This demonstration page uses our WeatherBlox Daily Observations layout. Learn more.

Left ArrowRight Arrow

34.80953, -87.64947

Hourly Observations for July 2, 2022

Temp ( °F °C ) Dew Point ( °F °C ) Humidity (%) Winds ( mph kmh ) Pressure ( in mb ) Visibility ( mi km ) Precip ( " mm )
12:53 am 00:53 Clear 76 24.4 73 22.8 91 91 Calm 29.98 1015 10 16 0.00 0.00
1:53 am 01:53 Clear 75 23.9 73 22.8 94 94 Calm 29.97 1015 10 16 0.00 0.00
2:53 am 02:53 Clear 75 23.9 71 21.7 88 88 Calm 29.97 1015 10 16 0.00 0.00
3:53 am 03:53 Clear 75 23.9 71 21.7 88 88 WSW 7 11 29.98 1015 10 16 0.00 0.00
4:53 am 04:53 Clear 75 23.9 71 21.7 88 88 Calm 30.00 1016 10 16 0.00 0.00
5:53 am 05:53 Mostly Sunny 74 23.3 71 21.7 91 91 S 3 6 30.03 1017 10 16 0.00 0.00
6:53 am 06:53 Sunny 75 23.9 71 21.7 88 88 Calm 30.03 1017 10 16 0.00 0.00
7:53 am 07:53 Sunny 79 26.1 72 22.2 79 79 Calm 30.04 1017 10 16 0.00 0.00
8:53 am 08:53 Sunny 83 28.3 72 22.2 70 70 NW 3 6 30.04 1017 10 16 0.00 0.00
9:53 am 09:53 Sunny 85 29.4 70 21.1 61 61 Calm 30.03 1017 10 16 0.00 0.00
10:53 am 10:53 Sunny 88 31.1 70 21.1 55 55 VRB 3 6 30.03 1017 10 16 0.00 0.00
11:53 am 11:53 Mostly Sunny 89 31.7 70 21.1 53 53 WSW 6 9 30.02 1017 10 16 0.00 0.00
12:53 pm 12:53 Partly Cloudy 92 33.3 69 20.6 47 47 WSW 7 11 30.00 1016 10 16 0.00 0.00
1:53 pm 13:53 Partly Cloudy 93 33.9 70 21.1 47 47 VRB 6 9 29.97 1015 10 16 0.00 0.00
2:53 pm 14:53 Mostly Cloudy 92 33.3 69 20.6 47 47 Calm 29.95 1014 10 16 0.00 0.00
3:53 pm 15:53 Mostly Cloudy 96 35.6 69 20.6 41 41 W 9 15 29.95 1014 10 16 0.00 0.00
4:53 pm 16:53 Mostly Sunny 95 35 69 20.6 43 43 W 8 13 29.93 1014 10 16 0.00 0.00
5:53 pm 17:53 Sunny 94 34.4 68 20 43 43 WSW 10 17 29.93 1013 10 16 0.00 0.00
6:53 pm 18:53 Sunny 92 33.3 68 20 46 46 WSW 9 15 29.93 1014 10 16 0.00 0.00
7:53 pm 19:53 Sunny 88 31.1 68 20 52 52 WSW 7 11 29.95 1014 10 16 0.00 0.00
8:53 pm 20:53 Clear 85 29.4 69 20.6 59 59 WSW 6 9 29.97 1015 10 16 0.00 0.00
9:53 pm 21:53 Clear 83 28.3 70 21.1 65 65 SW 3 6 29.99 1016 10 16 0.00 0.00
10:53 pm 22:53 Clear 79 26.1 71 21.7 77 77 Calm 29.98 1015 10 16 0.00 0.00
11:53 pm 23:53 Clear 81 27.2 71 21.7 72 72 W 7 11 29.98 1015 10 16 0.00 0.00

Powered by AerisWeather